OPS 4682 DEB, 27545

Orbit data source: Space-Track

OPS 4682 DEB, 27545 is space debris in LEO originally from a launch on Sat, 03 Apr 1965 UTC launched from the Air Force Western Test Range (AFWTR). Debris objects in space refer to the collection of defunct objects orbiting the Earth. Examples of debris include non-operational satellites, rocket bodies, and fragments generated from explosions, collisions, or faulty payload assembly.

Loading next visibility...
Identifier
27545, 1965-027BH
Orbit
LEO
Country
Flag of USUS
Related business
Manufacturer
Unknown
Mission
Spacecraft
Bus & Motor
Unknown
Mass
Unknown
Launch date (UTC)
1965-04-03 (61 years ago)
Launch vehicle
Unknown
Launch site
Air Force Western Test Range (AFWTR)
Object type
Payload
Rocket body
Debris
Shape & HBR
Unknown shape, 0.1 m
Radar Cross Section
Small (<0.1 m²)

Expand to show TLE details & history
Last TLE update: 3 days ago

TLE from 3 days ago
0 OPS 4682 DEB
1 27545U 65027BH  25291.43609677  .00001056  00000-0  37366-2 0  9993
2 27545  90.2464   1.9160 0026465 152.3450 222.5908 12.94978392123963
Epoch: 2025-10-18T10:27Z
TLE epoch observation values (Epoch: 2025-10-18T10:27:58.760Z)
Latitude
14.7036°
Longitude
177.68969°
Altitude
1,298.95 km
Speed
7.201 km/s
True Right ascension
00h 07m 24s
True Declination
14° 37' 31"
Sunlit
Object was in full shadow at epoch
Visualization orbit readout
Latitude
Unknown
Longitude
Unknown
Altitude
Unknown
Speed
Unknown
Apparent Right ascension
Unknown
Apparent Declination
Unknown
Sunlit
N/A
Visualization observer readout
Local Sidereal Time
03:26:45
Azimuth
Unknown
Elevation
Unknown
Doppler factor
Unknown
Orbital elements
Apogee altitude
1,299.224 km
Perigee altitude
1,258.695 km
Semi-major axis
7,657.097 km
Eccentricity
0.00265
Inclination
90.2464°
RAAN
1.916°
Arg. of periapsis
152.345°
True anomaly
222.38606°
Mean anomaly
222.5908°
Eccentric anomaly
222.48838°
Mean motion
3.23927 °/min
Orbital period
111.14 mins
BSTAR
0.0037366
Loading maneuver chart data...
Computing Atmospheric mass density...
Loading historical data...
Loading historical data...
Loading historical data...
Loading historical data...
Loading historical data...
Loading historical data...
Loading historical data...

Documentation

Showing up to 5 results
|